Weather History for KDXX - March, 2014

Change the Weather History Date:

Tuesday, March 11, 2014

  Actual Average (KAQP) Record (KAQP)
Temperature  
Mean Temperature 37 °F -  
Max Temperature 44 °F 28 °F 62 °F (2012)
Min Temperature 28 °F 13 °F -7 °F (1998)
Degree Days  
Heating Degree Days 28    
Moisture  
Dew Point 33 °F    
Average Humidity 78    
Maximum Humidity 93    
Minimum Humidity 61    
Precipitation  
Precipitation 0.21 in - - ()
Sea Level Pressure  
Sea Level Pressure 29.94 in    
Wind  
Wind Speed 10 mph (North)    
Max Wind Speed 25 mph    
Max Gust Speed 32 mph    
Visibility 10 miles    
Events Rain    
Averages and records for this station are not official NWS values.
T = Trace of Precipitation, MM = Missing Value Source: NWS Daily Summary

Daily Weather History Graph

Daily Weather History Graph

Search for Another Location

Airport or City:

Trip Planner

Search our weather history database for the weather conditions in past years. The results will help you decide how hot, cold, wet, or windy it might be!

Date:

Astronomy

Mar. 11, 2014 Rise Set
Actual Time 7:44 AM CDT 7:25 PM CDT
Civil Twilight 7:15 AM CDT 7:54 PM CDT
Nautical Twilight 6:41 AM CDT 8:28 PM CDT
Astronomical Twilight 6:06 AM CDT 9:03 PM CDT
Moon 2:53 PM CDT (3/11) 4:48 AM CDT (3/11)
Length of Visible Light 12h 39m
Length of Day
11h 41m
Waxing Gibbous, 78% of the Moon is Illuminated
Mar 11
Waxing Gibbous
Mar 16
Full
Mar 23
Last Quarter
Mar 30
New
Apr 7
First Quarter

Hourly Weather History & Observations

Time (CDT) Temp. Windchill Dew Point Humidity Pressure Visibility Wind Dir Wind Speed Gust Speed Precip Events Conditions
12:13 AM 42.8 °F 40.1 °F 39.2 °F 87% 29.74 in 10.0 mi NW 4.6 mph - N/A   Clear
12:34 AM 44.6 °F 40.2 °F 37.4 °F 76% 29.74 in 10.0 mi North 8.1 mph - N/A   Clear
12:54 AM 42.8 °F 38.6 °F 37.4 °F 81% 29.75 in 10.0 mi North 6.9 mph - N/A   Clear
1:13 AM 42.8 °F 39.3 °F 37.4 °F 81% 29.76 in 10.0 mi North 5.8 mph - N/A   Clear
1:34 AM 42.8 °F 38.6 °F 37.4 °F 81% 29.76 in 10.0 mi North 6.9 mph - N/A Rain Light Rain
1:54 AM 42.8 °F 37.5 °F 37.4 °F 81% 29.77 in 10.0 mi NNE 9.2 mph - N/A Rain Light Rain
2:13 AM 42.8 °F 37.0 °F 37.4 °F 81% 29.77 in 10.0 mi NNE 10.4 mph - N/A Rain Light Rain
2:34 AM 42.8 °F 39.3 °F 37.4 °F 81% 29.77 in 10.0 mi NNE 5.8 mph - 0.01 in Rain Rain
2:54 AM 42.8 °F 41.1 °F 39.2 °F 87% 29.77 in 10.0 mi NNE 3.5 mph - 0.02 in Rain Light Rain
3:13 AM 41.0 °F 38.0 °F 37.4 °F 87% 29.77 in 10.0 mi North 4.6 mph - 0.02 in Rain Light Rain
3:34 AM 42.8 °F - 37.4 °F 81% 29.77 in 10.0 mi Calm Calm - 0.02 in Rain Light Rain
3:53 AM 42.8 °F 41.1 °F 37.4 °F 81% 29.75 in 10.0 mi North 3.5 mph - 0.04 in Rain Light Rain
4:13 AM 41.0 °F 39.0 °F 37.4 °F 87% 29.75 in 10.0 mi North 3.5 mph - 0.01 in Rain Light Rain
4:34 AM 41.0 °F 39.0 °F 37.4 °F 87% 29.74 in 10.0 mi North 3.5 mph - 0.01 in Rain Light Rain
4:53 AM 41.0 °F 38.0 °F 37.4 °F 87% 29.75 in 10.0 mi NNW 4.6 mph - 0.01 in Rain Light Rain
5:13 AM 41.0 °F 35.2 °F 37.4 °F 87% 29.76 in 10.0 mi North 9.2 mph - 0.01 in Rain Light Rain
5:34 AM 41.0 °F 33.9 °F 37.4 °F 87% 29.77 in 7.0 mi North 12.7 mph - 0.05 in Rain Rain
5:53 AM 39.2 °F 33.0 °F 37.4 °F 93% 29.78 in 10.0 mi NNW 9.2 mph - 0.07 in Rain Rain
6:13 AM 39.2 °F 33.6 °F 37.4 °F 93% 29.79 in 10.0 mi NNW 8.1 mph - 0.03 in Rain Light Rain
6:34 AM 39.2 °F 34.2 °F 37.4 °F 93% 29.81 in 10.0 mi NNW 6.9 mph - 0.04 in Rain Light Rain
6:54 AM 39.2 °F 37.0 °F 37.4 °F 93% 29.81 in 10.0 mi NNW 3.5 mph - 0.05 in Rain Light Rain
7:13 AM 39.2 °F 35.9 °F 35.6 °F 87% 29.83 in 10.0 mi NW 4.6 mph - 0.01 in Rain Light Rain
7:34 AM 39.2 °F 34.2 °F 35.6 °F 87% 29.84 in 10.0 mi NW 6.9 mph - 0.02 in Rain Light Rain
7:53 AM 39.2 °F 35.0 °F 35.6 °F 87% 29.85 in 7.0 mi NNW 5.8 mph - 0.02 in Rain Light Rain
8:13 AM 39.2 °F 37.0 °F 35.6 °F 87% 29.86 in 10.0 mi WNW 3.5 mph - N/A Rain Light Rain
8:34 AM 37.4 °F 34.9 °F 35.6 °F 93% 29.86 in 10.0 mi NNW 3.5 mph - N/A   Clear
8:54 AM 37.4 °F 32.8 °F 35.6 °F 93% 29.88 in 10.0 mi NNW 5.8 mph - N/A   Clear
9:13 AM 37.4 °F 31.4 °F 35.6 °F 93% 29.89 in 10.0 mi North 8.1 mph - N/A   Clear
9:34 AM 37.4 °F 31.4 °F 35.6 °F 93% 29.90 in 10.0 mi North 8.1 mph - N/A   Clear
9:54 AM 37.4 °F 31.4 °F 35.6 °F 93% 29.90 in 10.0 mi North 8.1 mph - N/A   Clear
10:13 AM 39.2 °F 33.6 °F 35.6 °F 87% 29.90 in 10.0 mi North 8.1 mph - N/A   Clear
10:34 AM 39.2 °F 33.0 °F 35.6 °F 87% 29.91 in 10.0 mi North 9.2 mph - N/A   Clear
10:54 AM 41.0 °F 34.7 °F 35.6 °F 81% 29.92 in 10.0 mi North 10.4 mph - N/A   Clear
11:13 AM 41.0 °F 34.3 °F 37.4 °F 87% 29.93 in 10.0 mi North 11.5 mph - N/A   Clear
11:34 AM 42.8 °F 35.8 °F 37.4 °F 81% 29.94 in 10.0 mi North 13.8 mph - N/A   Clear
11:54 AM 42.8 °F 35.4 °F 35.6 °F 76% 29.95 in 10.0 mi North 15.0 mph 18.4 mph N/A   Clear
12:13 PM 42.8 °F 36.2 °F 37.4 °F 81% 29.95 in 10.0 mi North 12.7 mph - N/A   Clear
12:34 PM 42.8 °F 36.6 °F 35.6 °F 76% 29.95 in 10.0 mi North 11.5 mph - N/A   Clear
12:54 PM 42.8 °F 36.2 °F 35.6 °F 76% 29.96 in 10.0 mi North 12.7 mph - N/A   Clear
1:14 PM 44.6 °F 37.4 °F 35.6 °F 71% 29.96 in 10.0 mi North 16.1 mph - N/A   Clear
1:34 PM 44.6 °F 38.1 °F 35.6 °F 71% 29.97 in 10.0 mi North 13.8 mph - N/A   Scattered Clouds
1:53 PM 44.6 °F 38.1 °F 35.6 °F 71% 29.97 in 10.0 mi North 13.8 mph - N/A   Mostly Cloudy
2:14 PM 44.6 °F 36.9 °F 35.6 °F 71% 29.98 in 10.0 mi North 18.4 mph 23.0 mph N/A   Mostly Cloudy
2:34 PM 44.6 °F 36.4 °F 35.6 °F 71% 29.98 in 10.0 mi North 20.7 mph 25.3 mph N/A   Mostly Cloudy
2:53 PM 44.6 °F 35.9 °F 33.8 °F 66% 29.98 in 10.0 mi North 23.0 mph 27.6 mph N/A   Scattered Clouds
3:14 PM 44.6 °F 36.4 °F 33.8 °F 66% 29.98 in 10.0 mi North 20.7 mph 29.9 mph N/A   Clear
3:34 PM 44.6 °F 35.5 °F 35.6 °F 71% 29.99 in 10.0 mi North 25.3 mph 31.1 mph N/A   Scattered Clouds
3:53 PM 42.8 °F 33.3 °F 33.8 °F 70% 30.01 in 10.0 mi North 24.2 mph 29.9 mph N/A   Scattered Clouds
4:14 PM 42.8 °F 33.5 °F 33.8 °F 70% 30.01 in 10.0 mi NNW 23.0 mph - N/A   Scattered Clouds
4:33 PM 42.8 °F 33.1 °F 32.0 °F 66% 30.02 in 10.0 mi NNW 25.3 mph 32.2 mph N/A   Clear
4:53 PM 41.0 °F 31.9 °F 30.2 °F 65% 30.04 in 10.0 mi North 19.6 mph 29.9 mph N/A   Scattered Clouds
5:14 PM 41.0 °F 31.4 °F 28.4 °F 61% 30.04 in 10.0 mi North 21.9 mph 28.8 mph N/A   Clear
5:33 PM 39.2 °F 28.5 °F 28.4 °F 65% 30.04 in 10.0 mi North 24.2 mph 28.8 mph N/A   Clear
5:54 PM 39.2 °F 29.6 °F 28.4 °F 65% 30.05 in 10.0 mi NNW 19.6 mph 27.6 mph N/A   Clear
6:14 PM 37.4 °F 26.6 °F 28.4 °F 70% 30.06 in 10.0 mi NNW 21.9 mph 28.8 mph N/A   Clear
6:33 PM 37.4 °F 26.4 °F 26.6 °F 65% 30.07 in 10.0 mi NNW 23.0 mph 28.8 mph N/A   Clear
6:54 PM 35.6 °F 24.8 °F 26.6 °F 70% 30.08 in 10.0 mi North 19.6 mph 27.6 mph N/A   Clear
7:14 PM 35.6 °F 25.5 °F 26.6 °F 70% 30.10 in 10.0 mi North 17.3 mph 25.3 mph N/A   Clear
7:33 PM 33.8 °F 21.9 °F 26.6 °F 75% 30.11 in 10.0 mi NNW 21.9 mph 25.3 mph N/A   Clear
7:54 PM 33.8 °F 22.8 °F 24.8 °F 70% 30.13 in 10.0 mi North 18.4 mph 28.8 mph N/A   Clear
8:14 PM 33.8 °F 22.8 °F 24.8 °F 70% 30.14 in 10.0 mi North 18.4 mph 24.2 mph N/A   Scattered Clouds
8:33 PM 33.8 °F 24.8 °F 24.8 °F 70% 30.13 in 10.0 mi North 12.7 mph 17.3 mph N/A   Scattered Clouds
8:54 PM 33.8 °F 24.3 °F 23.0 °F 65% 30.14 in 10.0 mi North 13.8 mph 20.7 mph N/A   Scattered Clouds
9:14 PM 32.0 °F 20.5 °F 23.0 °F 69% 30.14 in 10.0 mi North 18.4 mph - N/A   Scattered Clouds
9:33 PM 33.8 °F 24.8 °F 24.8 °F 70% 30.14 in 10.0 mi North 12.7 mph - N/A   Mostly Cloudy
9:54 PM 33.8 °F 23.5 °F 24.8 °F 70% 30.14 in 10.0 mi North 16.1 mph - N/A   Overcast
10:13 PM 32.0 °F 20.5 °F 21.2 °F 64% 30.15 in 10.0 mi North 18.4 mph - N/A   Overcast
10:34 PM 32.0 °F 21.2 °F 23.0 °F 69% 30.15 in 10.0 mi NNW 16.1 mph 20.7 mph N/A   Mostly Cloudy
10:54 PM 30.2 °F 19.8 °F 21.2 °F 69% 30.15 in 10.0 mi North 13.8 mph - N/A   Scattered Clouds
11:13 PM 30.2 °F 20.2 °F 23.0 °F 75% 30.15 in 10.0 mi NNW 12.7 mph - N/A   Clear
11:34 PM 30.2 °F 20.8 °F 21.2 °F 69% 30.15 in 10.0 mi NNW 11.5 mph - N/A   Clear
11:54 PM 28.4 °F 18.0 °F 23.0 °F 80% 30.15 in 10.0 mi NNW 12.7 mph - N/A   Clear